• In Romania
  • List of Countries
  • For 7 days
  • Water Temperature
  • Satellite Maps
  • Weather Map
  • Weather Widgets
  • user-avatar
    Login

    Hourly Weather Dalewice

    Today, 24 October, Wednesday

    Time Temperature Precipitation Wind Pressure Humidity
    00:00 +7°C° 1 mm 9 mps 731 mmHg 80%
    01:00 +7°C° 1 mm 9 mps 730 mmHg 81%
    02:00 +7°C° 0.6 mm 9 mps 730 mmHg 80%
    03:00 +7°C° 0.6 mm 9 mps 729 mmHg 78%
    04:00 +6°C° 0.6 mm 8 mps 729 mmHg 77%
    05:00 +6°C° 0.2 mm 9 mps 729 mmHg 75%
    06:00 +5°C° 0.2 mm 9 mps 729 mmHg 72%
    07:00 +5°C° 0.2 mm 9 mps 730 mmHg 70%
    08:00 +5°C° 0.2 mm 10 mps 730 mmHg 64%
    09:00 +5°C° 0.2 mm 10 mps 731 mmHg 59%
    10:00 +4°C° 0.2 mm 11 mps 732 mmHg 53%
    11:00 +6°C° 0 mm 11 mps 732 mmHg 49%
    12:00 +6°C° 0 mm 11 mps 733 mmHg 45%
    13:00 +6°C° 0 mm 11 mps 733 mmHg 41%
    14:00 +6°C° 0 mm 10 mps 734 mmHg 43%
    15:00 +5°C° 0 mm 9 mps 734 mmHg 44%
    16:00 +5°C° 0 mm 8 mps 735 mmHg 46%
    17:00 +4°C° 0 mm 7 mps 736 mmHg 49%
    18:00 +4°C° 0 mm 7 mps 736 mmHg 52%
    19:00 +3°C° 0 mm 6 mps 737 mmHg 55%
    20:00 +3°C° 0 mm 6 mps 737 mmHg 56%
    21:00 +3°C° 0 mm 6 mps 738 mmHg 58%
    22:00 +2°C° 0 mm 6 mps 739 mmHg 59%
    23:00 +2°C° 0 mm 6 mps 739 mmHg 61%

    Tomorrow, 25 October, Thursday

    Time Temperature Precipitation Wind Pressure Humidity
    00:00 +2°C° 0 mm 6 mps 739 mmHg 63%
    01:00 +2°C° 0 mm 6 mps 740 mmHg 65%
    02:00 +1°C° 0 mm 5 mps 739 mmHg 69%
    03:00 +1°C° 0 mm 5 mps 739 mmHg 74%
    04:00 +1°C° 0 mm 5 mps 739 mmHg 78%
    05:00 +1°C° 0 mm 5 mps 739 mmHg 78%
    06:00 +2°C° 0 mm 5 mps 739 mmHg 77%
    07:00 +2°C° 0 mm 5 mps 739 mmHg 76%
    08:00 +3°C° 0.5 mm 5 mps 738 mmHg 77%
    09:00 +3°C° 0.5 mm 6 mps 737 mmHg 79%
    10:00 +4°C° 0.5 mm 6 mps 737 mmHg 81%
    11:00 +6°C° 0.2 mm 7 mps 736 mmHg 79%
    12:00 +9°C° 0.2 mm 8 mps 735 mmHg 77%
    13:00 +11°C° 0.2 mm 9 mps 735 mmHg 76%
    14:00 +10°C° 0.3 mm 8 mps 735 mmHg 78%
    15:00 +10°C° 0.3 mm 8 mps 734 mmHg 80%
    16:00 +9°C° 0.3 mm 8 mps 734 mmHg 83%
    17:00 +9°C° 0.2 mm 8 mps 735 mmHg 82%
    18:00 +9°C° 0.2 mm 8 mps 735 mmHg 82%
    19:00 +9°C° 0.2 mm 8 mps 736 mmHg 82%
    20:00 +9°C° 0.2 mm 7 mps 736 mmHg 81%
    21:00 +8°C° 0.2 mm 6 mps 736 mmHg 80%
    22:00 +8°C° 0.2 mm 6 mps 737 mmHg 79%
    23:00 +7°C° 0 mm 5 mps 737 mmHg 80%

    Day after tomorrow, 26 October, Friday

    Time Temperature Precipitation Wind Pressure Humidity
    00:00 +6°C° 0 mm 5 mps 737 mmHg 80%
    01:00 +6°C° 0 mm 5 mps 737 mmHg 81%
    02:00 +6°C° 0 mm 5 mps 737 mmHg 82%
    03:00 +5°C° 0 mm 4 mps 737 mmHg 82%
    04:00 +5°C° 0 mm 4 mps 737 mmHg 83%
    05:00 +5°C° 0 mm 4 mps 737 mmHg 84%
    06:00 +5°C° 0 mm 4 mps 737 mmHg 85%
    07:00 +6°C° 0 mm 4 mps 737 mmHg 86%
    08:00 +7°C° 0 mm 4 mps 737 mmHg 81%
    09:00 +8°C° 0 mm 4 mps 737 mmHg 76%
    10:00 +9°C° 0 mm 5 mps 737 mmHg 71%
    11:00 +10°C° 0 mm 5 mps 737 mmHg 69%
    12:00 +12°C° 0 mm 5 mps 736 mmHg 68%
    13:00 +12°C° 0 mm 5 mps 736 mmHg 66%
    14:00 +12°C° 0 mm 4 mps 736 mmHg 68%
    15:00 +12°C° 0 mm 4 mps 735 mmHg 70%
    16:00 +11°C° 0 mm 3 mps 735 mmHg 72%
    17:00 +11°C° 0 mm 4 mps 734 mmHg 75%
    18:00 +10°C° 0 mm 4 mps 734 mmHg 77%
    19:00 +8°C° 0 mm 4 mps 734 mmHg 80%
    20:00 +8°C° 0 mm 4 mps 734 mmHg 81%
    21:00 +8°C° 0 mm 4 mps 734 mmHg 81%
    22:00 +9°C° 0 mm 5 mps 734 mmHg 82%
    23:00 +8°C° 0 mm 5 mps 734 mmHg 81%

    27 October, Saturday

    Time Temperature Precipitation Wind Pressure Humidity
    00:00 +8°C° 0 mm 5 mps 734 mmHg 81%
    01:00 +8°C° 0 mm 5 mps 734 mmHg 80%
    02:00 +7°C° 0 mm 5 mps 734 mmHg 79%
    03:00 +7°C° 0 mm 5 mps 734 mmHg 78%
    04:00 +7°C° 0 mm 5 mps 734 mmHg 77%
    05:00 +7°C° 0 mm 5 mps 735 mmHg 75%
    06:00 +6°C° 0 mm 5 mps 735 mmHg 72%
    07:00 +6°C° 0 mm 5 mps 735 mmHg 70%
    08:00 +6°C° 0 mm 5 mps 736 mmHg 65%
    09:00 +7°C° 0 mm 5 mps 736 mmHg 61%
    10:00 +7°C° 0 mm 5 mps 737 mmHg 57%
    11:00 +7°C° 0 mm 4 mps 737 mmHg 55%
    12:00 +8°C° 0 mm 4 mps 737 mmHg 53%
    13:00 +8°C° 0 mm 4 mps 737 mmHg 51%
    14:00 +9°C° 0 mm 3 mps 737 mmHg 53%
    15:00 +8°C° 0 mm 3 mps 738 mmHg 55%
    16:00 +8°C° 0 mm 2 mps 738 mmHg 56%
    17:00 +8°C° 0 mm 2 mps 738 mmHg 58%
    18:00 +7°C° 0 mm 2 mps 738 mmHg 60%
    19:00 +8°C° 0 mm 1 mps 739 mmHg 62%
    20:00 +8°C° 0 mm 1 mps 739 mmHg 64%
    21:00 +7°C° 0 mm 1 mps 739 mmHg 66%
    22:00 +7°C° 0 mm 1 mps 739 mmHg 67%
    23:00 +7°C° 0.2 mm 1 mps 740 mmHg 70%

    28 October, Sunday

    Time Temperature Precipitation Wind Pressure Humidity
    00:00 +7°C° 0.2 mm 1 mps 740 mmHg 73%
    01:00 +7°C° 0.2 mm 1 mps 740 mmHg 75%
    02:00 +5°C° 0.2 mm 2 mps 740 mmHg 77%
    03:00 +5°C° 0.2 mm 2 mps 740 mmHg 79%
    04:00 +4°C° 0.2 mm 3 mps 740 mmHg 81%
    05:00 +4°C° 0.3 mm 3 mps 740 mmHg 81%
    06:00 +4°C° 0.3 mm 3 mps 740 mmHg 82%
    07:00 +4°C° 0.3 mm 4 mps 740 mmHg 82%
    08:00 +4°C° 0.3 mm 4 mps 740 mmHg 81%
    09:00 +5°C° 0.3 mm 5 mps 740 mmHg 79%
    10:00 +5°C° 0.3 mm 5 mps 740 mmHg 78%
    11:00 +4°C° 0.4 mm 6 mps 740 mmHg 80%
    12:00 +4°C° 0.4 mm 6 mps 739 mmHg 81%
    13:00 +4°C° 0.4 mm 6 mps 739 mmHg 83%
    14:00 +4°C° 1 mm 6 mps 739 mmHg 85%
    15:00 +3°C° 1 mm 6 mps 739 mmHg 87%
    16:00 +3°C° 1 mm 6 mps 739 mmHg 89%
    17:00 +3°C° 1.5 mm 5 mps 738 mmHg 90%
    18:00 +3°C° 1.5 mm 5 mps 738 mmHg 91%
    19:00 +3°C° 1.5 mm 5 mps 738 mmHg 92%
    20:00 +5°C° 0.9 mm 5 mps 738 mmHg 92%
    21:00 +5°C° 0.9 mm 5 mps 738 mmHg 93%
    22:00 +5°C° 0.9 mm 5 mps 737 mmHg 93%
    23:00 +5°C° 0.2 mm 5 mps 737 mmHg 93%

    29 October, Monday

    Time Temperature Precipitation Wind Pressure Humidity
    00:00 +6°C° 0.2 mm 5 mps 736 mmHg 94%
    01:00 +6°C° 0.2 mm 5 mps 736 mmHg 94%
    02:00 +6°C° 0.2 mm 4 mps 735 mmHg 94%
    03:00 +7°C° 0.2 mm 4 mps 735 mmHg 94%
    04:00 +7°C° 0.2 mm 4 mps 734 mmHg 94%
    05:00 +7°C° 0.1 mm 4 mps 734 mmHg 92%
    06:00 +8°C° 0.1 mm 4 mps 733 mmHg 90%
    07:00 +10°C° 0.1 mm 4 mps 733 mmHg 89%
    08:00 +11°C° 0.1 mm 4 mps 733 mmHg 86%
    09:00 +11°C° 0.1 mm 4 mps 733 mmHg 82%
    10:00 +12°C° 0.1 mm 5 mps 732 mmHg 79%
    11:00 +12°C° 0.1 mm 4 mps 732 mmHg 81%
    12:00 +12°C° 0.1 mm 4 mps 732 mmHg 82%
    13:00 +12°C° 0.1 mm 4 mps 732 mmHg 83%
    14:00 +12°C° 0.4 mm 3 mps 732 mmHg 85%
    15:00 +12°C° 0.4 mm 3 mps 732 mmHg 87%
    16:00 +12°C° 0.4 mm 3 mps 732 mmHg 89%
    17:00 +12°C° 0.1 mm 3 mps 732 mmHg 89%
    18:00 +11°C° 0.1 mm 3 mps 732 mmHg 90%
    19:00 +12°C° 0.1 mm 2 mps 732 mmHg 91%
    20:00 +12°C° 0 mm 2 mps 732 mmHg 91%
    21:00 +12°C° 0 mm 2 mps 732 mmHg 90%
    22:00 +12°C° 0 mm 2 mps 733 mmHg 90%
    23:00 +12°C° 0 mm 2 mps 733 mmHg 90%

    30 October, Tuesday

    Time Temperature Precipitation Wind Pressure Humidity
    00:00 +11°C° 0 mm 3 mps 733 mmHg 91%
    01:00 +11°C° 0 mm 3 mps 732 mmHg 91%
    02:00 +11°C° 0 mm 3 mps 732 mmHg 91%
    03:00 +11°C° 0 mm 3 mps 732 mmHg 91%
    04:00 +11°C° 0 mm 4 mps 732 mmHg 91%
    05:00 +11°C° 0 mm 4 mps 732 mmHg 89%
    06:00 +11°C° 0 mm 4 mps 732 mmHg 88%
    07:00 +12°C° 0 mm 5 mps 732 mmHg 87%
    08:00 +13°C° 0 mm 5 mps 732 mmHg 83%
    09:00 +14°C° 0 mm 5 mps 732 mmHg 78%
    10:00 +15°C° 0 mm 6 mps 733 mmHg 74%
    11:00 +15°C° 0.1 mm 5 mps 732 mmHg 75%
    12:00 +15°C° 0.1 mm 5 mps 732 mmHg 76%
    13:00 +15°C° 0.1 mm 5 mps 732 mmHg 77%
    14:00 +15°C° 0.9 mm 4 mps 732 mmHg 82%
    15:00 +14°C° 0.9 mm 3 mps 732 mmHg 87%
    16:00 +14°C° 0.9 mm 2 mps 732 mmHg 92%
    17:00 +14°C° 0.3 mm 2 mps 732 mmHg 93%
    18:00 +14°C° 0.3 mm 2 mps 732 mmHg 94%
    19:00 +14°C° 0.3 mm 1 mps 732 mmHg 95%
    20:00 +13°C° 1.8 mm 2 mps 731 mmHg 95%
    21:00 +13°C° 1.8 mm 2 mps 731 mmHg 95%
    22:00 +13°C° 1.8 mm 2 mps 731 mmHg 96%
    23:00 +12°C° 1.6 mm 3 mps 731 mmHg 94%
    Show more